Location: Colle Santa Colomba
(42.0333°N, 12.5667°E)
Time: 03:36:01
(UTC+00:00)

Cosmos 2333 - Pass Details

Date: 25 October 2021
Orbit: 829 x 866 km, 70.9° (Epoch: 05 December)

Event Time Altitude Azimuth Distance (km) Brightness Sun altitude
Rises 17:33:51 0° 183° (S) 3,363 7.4 -15.6°
Reaches altitude 10° 17:36:22 10° 176° (S) 2,438 6.6 -16.1°
Maximum altitude 17:41:37 43° 106° (ESE) 1,169 4.5 -17.1°
Enters shadow 17:45:26 18° 44° (NE) 1,956 5.7 -17.8°
